| time (UTC) | temp F | wind direction | speed knots | gust knots | rain 1hr in | rain 24hr in | rain mn in | humidity % | barometer mb |
| 20260508012603 | 74 | 206 | 0.9 | 5.2 | 0.00 | 0.00 | 0.00 | 22 | 1011.8 |
| 20260508012103 | 74 | 226 | 0.9 | 6.1 | 0.00 | 0.00 | 0.00 | 23 | 1011.8 |
| 20260508011604 | 74 | 239 | 0.9 | 4.3 | 0.00 | 0.00 | 0.00 | 23 | 1011.7 |
| 20260508011103 | 75 | 300 | 0.0 | 2.6 | 0.00 | 0.00 | 0.00 | 24 | 1011.8 |
| 20260508010603 | 75 | 249 | 0.9 | 6.1 | 0.00 | 0.00 | 0.00 | 24 | 1011.7 |
| 20260508005603 | 76 | 229 | 1.7 | 6.1 | 0.00 | 0.00 | 0.00 | 24 | 1011.7 |
| 20260508004603 | 76 | 230 | 1.7 | 7.0 | 0.00 | 0.00 | 0.00 | 24 | 1011.8 |
| 20260508003604 | 77 | 252 | 0.9 | 7.0 | 0.00 | 0.00 | 0.00 | 23 | 1011.7 |
| 20260508003103 | 77 | 183 | 0.0 | 8.7 | 0.00 | 0.00 | 0.00 | 23 | 1011.7 |
| 20260508001603 | 76 | 257 | 0.9 | 7.0 | 0.00 | 0.00 | 0.00 | 24 | 1011.6 |
| 20260508001104 | 77 | 190 | 1.7 | 11.3 | 0.00 | 0.00 | 0.00 | 24 | 1011.6 |
| 20260508000604 | 78 | 270 | 1.7 | 8.7 | 0.00 | 0.00 | 0.00 | 24 | 1011.4 |
| 20260507235603 | 79 | 200 | 0.9 | 13.9 | 0.00 | 0.00 | 0.00 | 23 | 1011.3 |
| 20260507235103 | 79 | 226 | 0.0 | 7.0 | 0.00 | 0.00 | 0.00 | 22 | 1011.2 |
| 20260507234104 | 79 | 238 | 0.9 | 2.6 | 0.00 | 0.00 | 0.00 | 21 | 1011.3 |
| 20260507233603 | 80 | 235 | 0.9 | 7.0 | 0.00 | 0.00 | 0.00 | 20 | 1011.3 |
| 20260507233103 | 80 | 234 | 0.9 | 7.0 | 0.00 | 0.00 | 0.00 | 19 | 1011.3 |
| 20260507232603 | 80 | 145 | 0.0 | 2.6 | 0.00 | 0.00 | 0.00 | 19 | 1011.2 |
| 20260507232103 | 80 | 209 | 0.9 | 2.6 | 0.00 | 0.00 | 0.00 | 19 | 1011.3 |
| 20260507231603 | 80 | 243 | 0.9 | 2.6 | 0.00 | 0.00 | 0.00 | 19 | 1011.3 |
| 20260507231103 | 80 | 255 | 0.9 | 2.6 | 0.00 | 0.00 | 0.00 | 19 | 1011.2 |
| 20260507230603 | 79 | 338 | 0.0 | 0.0 | 0.00 | 0.00 | 0.00 | 21 | 1011.2 |
| 20260507230104 | 78 | 329 | 0.0 | 1.7 | 0.00 | 0.00 | 0.00 | 21 | 1011.4 |
| 20260507225604 | 78 | 61 | 0.9 | 2.6 | 0.00 | 0.00 | 0.00 | 20 | 1011.4 |
| 20260507225103 | 78 | 331 | 0.9 | 1.7 | 0.00 | 0.00 | 0.00 | 21 | 1011.4 |
| 20260507224604 | 77 | 336 | 0.0 | 4.3 | 0.00 | 0.00 | 0.00 | 21 | 1011.6 |
| 20260507224103 | 77 | 313 | 0.9 | 4.3 | 0.00 | 0.00 | 0.00 | 21 | 1011.5 |
| 20260507223603 | 77 | 307 | 0.9 | 7.8 | 0.00 | 0.00 | 0.00 | 21 | 1011.6 |
| 20260507223103 | 77 | 331 | 0.9 | 2.6 | 0.00 | 0.00 | 0.00 | 21 | 1011.5 |
| 20260507222604 | 77 | 325 | 1.7 | 2.6 | 0.00 | 0.00 | 0.00 | 21 | 1011.6 |
| 20260507222104 | 77 | 229 | 0.0 | 2.6 | 0.00 | 0.00 | 0.00 | 21 | 1011.6 |
| 20260507221604 | 77 | 332 | 1.7 | 5.2 | 0.00 | 0.00 | 0.00 | 20 | 1011.7 |
| 20260507221103 | 78 | 280 | 0.0 | 4.3 | 0.00 | 0.00 | 0.00 | 20 | 1011.8 |
| 20260507220603 | 78 | 320 | 2.6 | 7.8 | 0.00 | 0.00 | 0.00 | 20 | 1011.8 |
| 20260507215104 | 79 | 323 | 1.7 | 7.8 | 0.00 | 0.00 | 0.00 | 20 | 1011.7 |
| 20260507214604 | 79 | 172 | 0.9 | 2.6 | 0.00 | 0.00 | 0.00 | 20 | 1011.8 |
| 20260507214104 | 78 | 327 | 0.9 | 2.6 | 0.00 | 0.00 | 0.00 | 21 | 1011.8 |
| 20260507213604 | 78 | 345 | 1.7 | 7.8 | 0.00 | 0.00 | 0.00 | 21 | 1011.8 |
| 20260507213104 | 78 | 326 | 0.0 | 4.3 | 0.00 | 0.00 | 0.00 | 22 | 1011.6 |
| 20260507211603 | 79 | 321 | 1.7 | 2.6 | 0.00 | 0.00 | 0.00 | 21 | 1012.0 |
| 20260507211104 | 79 | 330 | 0.9 | 2.6 | 0.00 | 0.00 | 0.00 | 22 | 1012.2 |
| 20260507210603 | 79 | 301 | 0.9 | 2.6 | 0.00 | 0.00 | 0.00 | 22 | 1012.2 |
| 20260507210104 | 79 | 250 | 0.0 | 1.7 | 0.00 | 0.00 | 0.00 | 21 | 1012.2 |
| 20260507205603 | 79 | 249 | 0.9 | 4.3 | 0.00 | 0.00 | 0.00 | 21 | 1012.2 |
| 20260507205103 | 79 | 294 | 0.0 | 1.7 | 0.00 | 0.00 | 0.00 | 22 | 1012.3 |
| 20260507204104 | 77 | 287 | 0.0 | 0.9 | 0.00 | 0.00 | 0.00 | 22 | 1012.5 |
| 20260507202604 | 76 | 341 | 0.9 | 1.7 | 0.00 | 0.00 | 0.00 | 24 | 1012.7 |
| 20260507202103 | 76 | 322 | 0.9 | 2.6 | 0.00 | 0.00 | 0.00 | 25 | 1012.6 |
| 20260507201603 | 75 | 276 | 0.0 | 2.6 | 0.00 | 0.00 | 0.00 | 25 | 1012.6 |
| 20260507201103 | 74 | 324 | 0.0 | 2.6 | 0.00 | 0.00 | 0.00 | 25 | 1012.7 |
| 20260507200603 | 74 | 325 | 1.7 | 5.2 | 0.00 | 0.00 | 0.00 | 26 | 1012.7 |
| 20260507200104 | 74 | 327 | 2.6 | 8.7 | 0.00 | 0.00 | 0.00 | 25 | 1012.7 |
| 20260507195604 | 74 | 324 | 0.9 | 7.0 | 0.00 | 0.00 | 0.00 | 25 | 1012.8 |
| 20260507195104 | 74 | 324 | 2.6 | 8.7 | 0.00 | 0.00 | 0.00 | 26 | 1012.8 |
| 20260507194603 | 75 | 305 | 1.7 | 4.3 | 0.00 | 0.00 | 0.00 | 26 | 1012.8 |
| 20260507194104 | 74 | 325 | 0.9 | 6.1 | 0.00 | 0.00 | 0.00 | 26 | 1013.0 |
| 20260507193604 | 74 | 326 | 2.6 | 7.8 | 0.00 | 0.00 | 0.00 | 27 | 1012.9 |
| 20260507192604 | 75 | 333 | 1.7 | 5.2 | 0.00 | 0.00 | 0.00 | 24 | 1013.0 |
| 20260507192103 | 76 | 325 | 0.9 | 2.6 | 0.00 | 0.00 | 0.00 | 24 | 1013.0 |
| 20260507191603 | 75 | 319 | 0.9 | 4.3 | 0.00 | 0.00 | 0.00 | 25 | 1013.1 |
| 20260507191103 | 75 | 67 | 0.0 | 0.9 | 0.00 | 0.00 | 0.00 | 26 | 1013.2 |
| 20260507190603 | 75 | 71 | 0.0 | 1.7 | 0.00 | 0.00 | 0.00 | 25 | 1013.3 |
| 20260507190104 | 74 | 92 | 0.9 | 4.3 | 0.00 | 0.00 | 0.00 | 25 | 1013.2 |
| 20260507185603 | 74 | 312 | 0.9 | 2.6 | 0.00 | 0.00 | 0.00 | 25 | 1013.2 |
| 20260507185103 | 74 | 210 | 0.9 | 7.0 | 0.00 | 0.00 | 0.00 | 26 | 1013.2 |
| 20260507184603 | 75 | 328 | 1.7 | 7.8 | 0.00 | 0.00 | 0.00 | 25 | 1013.1 |
| 20260507183604 | 75 | 216 | 0.9 | 7.0 | 0.00 | 0.00 | 0.00 | 24 | 1013.1 |
| 20260507183103 | 75 | 42 | 0.0 | 2.6 | 0.00 | 0.00 | 0.00 | 22 | 1013.1 |
| 20260507182604 | 75 | 102 | 0.0 | 2.6 | 0.00 | 0.00 | 0.00 | 23 | 1013.3 |
| 20260507182103 | 74 | 57 | 0.9 | 4.3 | 0.00 | 0.00 | 0.00 | 22 | 1013.3 |
| 20260507181103 | 73 | 93 | 0.0 | 0.0 | 0.00 | 0.00 | 0.00 | 23 | 1013.5 |
| 20260507180603 | 73 | 83 | 0.0 | 2.6 | 0.00 | 0.00 | 0.00 | 24 | 1013.6 |
| 20260507175604 | 72 | 86 | 0.0 | 2.6 | 0.00 | 0.00 | 0.00 | 26 | 1013.7 |
| 20260507175104 | 72 | 206 | 0.0 | 2.6 | 0.00 | 0.00 | 0.00 | 27 | 1013.8 |
| 20260507174103 | 71 | 162 | 0.0 | 0.9 | 0.00 | 0.00 | 0.00 | 28 | 1013.8 |
| 20260507173603 | 71 | 163 | 0.0 | 2.6 | 0.00 | 0.00 | 0.00 | 28 | 1013.9 |
| 20260507173104 | 70 | 151 | 0.0 | 2.6 | 0.00 | 0.00 | 0.00 | 29 | 1014.1 |
| 20260507172604 | 70 | 98 | 0.9 | 4.3 | 0.00 | 0.00 | 0.00 | 28 | 1014.2 |
| 20260507172103 | 69 | 83 | 0.0 | 0.0 | 0.00 | 0.00 | 0.00 | 29 | 1014.2 |
| 20260507171603 | 69 | 77 | 0.0 | 2.6 | 0.00 | 0.00 | 0.00 | 31 | 1014.2 |
| 20260507171104 | 68 | 355 | 0.0 | 1.7 | 0.00 | 0.00 | 0.00 | 33 | 1014.3 |
| 20260507170604 | 67 | 268 | 0.0 | 0.0 | 0.00 | 0.00 | 0.00 | 34 | 1014.3 |
| 20260507170104 | 67 | 269 | 0.0 | 0.0 | 0.00 | 0.00 | 0.00 | 34 | 1014.3 |
| 20260507165603 | 67 | 269 | 0.0 | 0.0 | 0.00 | 0.00 | 0.00 | 34 | 1014.3 |
| 20260507165104 | 67 | 269 | 0.0 | 2.6 | 0.00 | 0.00 | 0.00 | 34 | 1014.3 |
| 20260507164604 | 67 | 336 | 0.0 | 1.7 | 0.00 | 0.00 | 0.00 | 35 | 1014.3 |
| 20260507164104 | 66 | 294 | 0.0 | 2.6 | 0.00 | 0.00 | 0.00 | 36 | 1014.3 |
| 20260507163103 | 66 | 178 | 0.0 | 1.7 | 0.00 | 0.00 | 0.00 | 37 | 1014.3 |
| 20260507162603 | 65 | 159 | 0.9 | 4.3 | 0.00 | 0.00 | 0.00 | 37 | 1014.4 |
| 20260507162104 | 65 | 137 | 0.0 | 0.9 | 0.00 | 0.00 | 0.00 | 38 | 1014.3 |
| 20260507161603 | 64 | 87 | 0.0 | 0.9 | 0.00 | 0.00 | 0.00 | 37 | 1014.3 |
| 20260507160603 | 63 | 143 | 0.0 | 2.6 | 0.00 | 0.00 | 0.00 | 40 | 1014.3 |
| 20260507160104 | 63 | 214 | 0.0 | 2.6 | 0.00 | 0.00 | 0.00 | 40 | 1014.4 |
| 20260507155604 | 63 | 225 | 0.0 | 2.6 | 0.00 | 0.00 | 0.00 | 40 | 1014.3 |
| 20260507155103 | 63 | 246 | 0.9 | 4.3 | 0.00 | 0.00 | 0.00 | 41 | 1014.5 |
| 20260507154603 | 62 | 232 | 0.9 | 2.6 | 0.00 | 0.00 | 0.00 | 41 | 1014.5 |
| 20260507154105 | 62 | 227 | 0.0 | 5.2 | 0.00 | 0.00 | 0.00 | 42 | 1014.4 |
| 20260507153603 | 62 | 257 | 0.9 | 4.3 | 0.00 | 0.00 | 0.00 | 42 | 1014.4 |
| 20260507153103 | 62 | 206 | 0.0 | 0.9 | 0.00 | 0.00 | 0.00 | 43 | 1014.4 |
| 20260507152604 | 61 | 175 | 0.0 | 1.7 | 0.00 | 0.00 | 0.00 | 43 | 1014.4 |
| 20260507152103 | 61 | 236 | 0.0 | 0.0 | 0.00 | 0.00 | 0.00 | 45 | 1014.5 |
| 20260507151603 | 60 | 236 | 0.0 | 0.0 | 0.00 | 0.00 | 0.00 | 46 | 1014.5 |
| 20260507151104 | 60 | 236 | 0.0 | 1.7 | 0.00 | 0.00 | 0.00 | 46 | 1014.5 |
| 20260507150603 | 60 | 238 | 0.0 | 2.6 | 0.00 | 0.00 | 0.00 | 47 | 1014.5 |
| 20260507150103 | 59 | 247 | 0.9 | 2.6 | 0.00 | 0.00 | 0.00 | 46 | 1014.5 |
| 20260507145604 | 59 | 214 | 0.0 | 2.6 | 0.00 | 0.00 | 0.00 | 49 | 1014.4 |
| 20260507145103 | 58 | 224 | 0.0 | 1.7 | 0.00 | 0.00 | 0.00 | 50 | 1014.4 |
| 20260507144603 | 58 | 232 | 0.0 | 1.7 | 0.00 | 0.00 | 0.00 | 50 | 1014.5 |
| 20260507144104 | 57 | 238 | 0.0 | 1.7 | 0.00 | 0.00 | 0.00 | 51 | 1014.5 |
| 20260507143603 | 57 | 238 | 0.9 | 2.6 | 0.00 | 0.00 | 0.00 | 52 | 1014.5 |
| 20260507143103 | 56 | 242 | 0.9 | 5.2 | 0.00 | 0.00 | 0.00 | 55 | 1014.5 |
| 20260507142103 | 55 | 246 | 0.0 | 2.6 | 0.00 | 0.00 | 0.00 | 57 | 1014.3 |
| 20260507141603 | 55 | 246 | 0.0 | 4.3 | 0.00 | 0.00 | 0.00 | 58 | 1014.2 |
| 20260507140603 | 54 | 243 | 0.9 | 2.6 | 0.00 | 0.00 | 0.00 | 58 | 1014.2 |
| 20260507140103 | 54 | 207 | 0.0 | 2.6 | 0.00 | 0.00 | 0.00 | 58 | 1014.2 |
| 20260507135604 | 53 | 215 | 0.0 | 1.7 | 0.00 | 0.00 | 0.00 | 59 | 1014.1 |
| 20260507135103 | 53 | 158 | 0.0 | 0.0 | 0.00 | 0.00 | 0.00 | 59 | 1014.1 |
| 20260507134603 | 53 | 196 | 0.0 | 0.9 | 0.00 | 0.00 | 0.00 | 59 | 1014.0 |
| 20260507134104 | 53 | 205 | 0.0 | 0.9 | 0.00 | 0.00 | 0.00 | 58 | 1014.0 |
| 20260507133603 | 53 | 206 | 0.0 | 1.7 | 0.00 | 0.00 | 0.00 | 58 | 1014.1 |
| 20260507132603 | 53 | 209 | 0.0 | 2.6 | 0.00 | 0.00 | 0.00 | 58 | 1013.8 |
| 20260507132103 | 53 | 169 | 0.0 | 2.6 | 0.00 | 0.00 | 0.00 | 58 | 1013.8 |
| 20260507131103 | 53 | 229 | 0.0 | 2.6 | 0.00 | 0.00 | 0.00 | 58 | 1013.7 |
| 20260507130104 | 53 | 184 | 0.0 | 2.6 | 0.00 | 0.00 | 0.00 | 58 | 1013.8 |
| 20260507125603 | 53 | 173 | 0.0 | 2.6 | 0.00 | 0.00 | 0.00 | 59 | 1013.8 |
| 20260507125104 | 53 | 262 | 0.0 | 0.9 | 0.00 | 0.00 | 0.00 | 60 | 1013.8 |
| 20260507124603 | 53 | 229 | 0.0 | 1.7 | 0.00 | 0.00 | 0.00 | 60 | 1013.9 |
| 20260507124104 | 53 | 225 | 0.0 | 0.9 | 0.00 | 0.00 | 0.00 | 60 | 1013.9 |
| 20260507123604 | 53 | 233 | 0.0 | 2.6 | 0.00 | 0.00 | 0.00 | 60 | 1013.9 |
| 20260507123103 | 53 | 198 | 0.0 | 2.6 | 0.00 | 0.00 | 0.00 | 59 | 1013.9 |
| 20260507122104 | 53 | 185 | 0.9 | 5.2 | 0.00 | 0.00 | 0.00 | 60 | 1014.0 |
| 20260507121103 | 52 | 231 | 0.0 | 0.9 | 0.00 | 0.00 | 0.00 | 61 | 1013.9 |
| 20260507120603 | 52 | 236 | 0.0 | 2.6 | 0.00 | 0.00 | 0.00 | 61 | 1014.0 |
| 20260507120104 | 52 | 193 | 0.0 | 0.9 | 0.00 | 0.00 | 0.00 | 62 | 1014.0 |
| 20260507115604 | 53 | 194 | 0.0 | 0.0 | 0.00 | 0.00 | 0.00 | 63 | 1014.1 |
| 20260507115103 | 53 | 195 | 0.0 | 0.0 | 0.00 | 0.00 | 0.00 | 63 | 1014.0 |
| 20260507114604 | 53 | 195 | 0.0 | 2.6 | 0.00 | 0.00 | 0.00 | 64 | 1014.0 |
| 20260507114104 | 53 | 200 | 0.0 | 0.9 | 0.00 | 0.00 | 0.00 | 64 | 1014.1 |
| 20260507113604 | 53 | 202 | 0.0 | 0.0 | 0.00 | 0.00 | 0.00 | 64 | 1014.1 |
| 20260507113104 | 53 | 202 | 0.0 | 0.0 | 0.00 | 0.00 | 0.00 | 63 | 1014.2 |
| 20260507112604 | 53 | 202 | 0.0 | 1.7 | 0.00 | 0.00 | 0.00 | 63 | 1014.1 |
| 20260507112103 | 53 | 192 | 0.0 | 0.9 | 0.00 | 0.00 | 0.00 | 63 | 1014.1 |
| 20260507111604 | 53 | 227 | 0.0 | 0.0 | 0.00 | 0.00 | 0.00 | 62 | 1014.2 |
| 20260507111103 | 53 | 229 | 0.0 | 0.0 | 0.00 | 0.00 | 0.00 | 62 | 1014.2 |
| 20260507110104 | 53 | 179 | 0.0 | 0.0 | 0.00 | 0.00 | 0.00 | 62 | 1014.1 |
| 20260507105609 | 53 | 180 | 0.0 | 0.0 | 0.00 | 0.00 | 0.00 | 61 | 1014.1 |
| 20260507104604 | 53 | 178 | 0.0 | 0.0 | 0.00 | 0.00 | 0.00 | 61 | 1014.1 |
| 20260507104103 | 54 | 175 | 0.0 | 0.0 | 0.00 | 0.00 | 0.00 | 61 | 1014.0 |
| 20260507103604 | 54 | 174 | 0.0 | 0.9 | 0.00 | 0.00 | 0.00 | 61 | 1014.0 |
| 20260507103103 | 54 | 169 | 0.0 | 0.0 | 0.00 | 0.00 | 0.00 | 61 | 1014.0 |
| 20260507102603 | 54 | 167 | 0.0 | 0.0 | 0.00 | 0.00 | 0.00 | 61 | 1014.0 |
| 20260507102104 | 54 | 169 | 0.0 | 0.0 | 0.00 | 0.00 | 0.00 | 61 | 1014.1 |
| 20260507101603 | 54 | 169 | 0.0 | 0.9 | 0.00 | 0.00 | 0.00 | 61 | 1014.2 |
| 20260507101104 | 54 | 173 | 0.0 | 1.7 | 0.00 | 0.00 | 0.00 | 61 | 1014.1 |
| 20260507100103 | 54 | 161 | 0.0 | 0.9 | 0.00 | 0.00 | 0.00 | 60 | 1014.2 |
| 20260507094104 | 55 | 194 | 0.0 | 0.9 | 0.00 | 0.00 | 0.00 | 61 | 1014.4 |
| 20260507093603 | 55 | 203 | 0.0 | 0.9 | 0.00 | 0.00 | 0.00 | 61 | 1014.5 |
| 20260507093104 | 54 | 164 | 0.0 | 1.7 | 0.00 | 0.00 | 0.00 | 61 | 1014.5 |
| 20260507092604 | 55 | 146 | 0.0 | 0.0 | 0.00 | 0.00 | 0.00 | 61 | 1014.6 |
| 20260507092103 | 54 | 145 | 0.0 | 0.0 | 0.00 | 0.00 | 0.00 | 61 | 1014.6 |
| 20260507091604 | 54 | 138 | 0.0 | 0.9 | 0.00 | 0.00 | 0.00 | 61 | 1014.7 |
| 20260507091103 | 54 | 292 | 0.0 | 0.0 | 0.00 | 0.00 | 0.00 | 61 | 1014.7 |
| 20260507090604 | 54 | 304 | 0.0 | 0.9 | 0.00 | 0.00 | 0.00 | 62 | 1014.8 |
| 20260507090105 | 54 | 322 | 0.0 | 0.0 | 0.00 | 0.00 | 0.00 | 62 | 1014.8 |
| 20260507085604 | 54 | 322 | 0.0 | 0.0 | 0.00 | 0.00 | 0.00 | 63 | 1015.0 |
| 20260507084604 | 53 | 324 | 0.0 | 0.0 | 0.00 | 0.00 | 0.00 | 65 | 1015.1 |
| 20260507084103 | 53 | 325 | 0.0 | 0.0 | 0.00 | 0.00 | 0.00 | 65 | 1015.0 |
| 20260507083604 | 53 | 325 | 0.0 | 0.0 | 0.00 | 0.00 | 0.00 | 65 | 1015.0 |
| 20260507083103 | 53 | 325 | 0.0 | 0.0 | 0.00 | 0.00 | 0.00 | 66 | 1015.0 |
| 20260507082604 | 53 | 325 | 0.0 | 0.0 | 0.00 | 0.00 | 0.00 | 67 | 1015.0 |
| 20260507082103 | 53 | 325 | 0.0 | 0.0 | 0.00 | 0.00 | 0.00 | 67 | 1014.9 |
| 20260507081604 | 52 | 325 | 0.0 | 0.0 | 0.00 | 0.00 | 0.00 | 67 | 1015.1 |
| 20260507081103 | 52 | 325 | 0.0 | 0.0 | 0.00 | 0.00 | 0.00 | 67 | 1015.1 |
| 20260507080603 | 52 | 325 | 0.0 | 0.0 | 0.00 | 0.00 | 0.00 | 67 | 1015.0 |
| 20260507080104 | 53 | 325 | 0.0 | 0.0 | 0.00 | 0.00 | 0.00 | 66 | 1015.1 |
| 20260507075603 | 53 | 325 | 0.0 | 0.0 | 0.00 | 0.00 | 0.00 | 65 | 1015.1 |
| 20260507075104 | 53 | 325 | 0.0 | 0.0 | 0.00 | 0.00 | 0.00 | 64 | 1015.1 |
| 20260507074603 | 53 | 325 | 0.0 | 0.0 | 0.00 | 0.00 | 0.00 | 64 | 1015.2 |
| 20260507074104 | 53 | 325 | 0.0 | 0.0 | 0.00 | 0.00 | 0.00 | 63 | 1015.2 |
| 20260507073603 | 54 | 325 | 0.0 | 0.0 | 0.00 | 0.00 | 0.00 | 62 | 1015.2 |
| 20260507073104 | 54 | 325 | 0.0 | 0.0 | 0.00 | 0.00 | 0.00 | 62 | 1015.3 |
| 20260507072604 | 54 | 325 | 0.0 | 0.0 | 0.00 | 0.00 | 0.00 | 61 | 1015.2 |
| 20260507072103 | 54 | 325 | 0.0 | 0.0 | 0.00 | 0.00 | 0.00 | 61 | 1015.2 |
| 20260507071604 | 55 | 325 | 0.0 | 0.0 | 0.00 | 0.00 | 0.00 | 61 | 1015.3 |
| 20260507071103 | 55 | 325 | 0.0 | 0.0 | 0.00 | 0.00 | 0.00 | 60 | 1015.2 |
| 20260507065604 | 56 | 325 | 0.0 | 0.0 | 0.00 | 0.00 | 0.00 | 59 | 1015.3 |
| 20260507065104 | 56 | 325 | 0.0 | 0.0 | 0.00 | 0.00 | 0.00 | 58 | 1015.3 |
| 20260507064604 | 56 | 325 | 0.0 | 0.0 | 0.00 | 0.00 | 0.00 | 58 | 1015.3 |
| 20260507064104 | 56 | 325 | 0.0 | 0.0 | 0.00 | 0.00 | 0.00 | 58 | 1015.2 |
| 20260507063604 | 56 | 325 | 0.0 | 0.0 | 0.00 | 0.00 | 0.00 | 59 | 1015.3 |
| 20260507063104 | 56 | 325 | 0.0 | 0.0 | 0.00 | 0.00 | 0.00 | 59 | 1015.3 |
| 20260507062603 | 57 | 325 | 0.0 | 0.0 | 0.00 | 0.00 | 0.00 | 59 | 1015.3 |
| 20260507062104 | 57 | 325 | 0.0 | 0.0 | 0.00 | 0.00 | 0.00 | 59 | 1015.3 |
| 20260507061603 | 57 | 325 | 0.0 | 0.0 | 0.00 | 0.00 | 0.00 | 59 | 1015.3 |
| 20260507061104 | 57 | 325 | 0.0 | 0.0 | 0.00 | 0.00 | 0.00 | 59 | 1015.4 |
| 20260507060603 | 58 | 325 | 0.0 | 0.0 | 0.00 | 0.00 | 0.00 | 58 | 1015.4 |
| 20260507060104 | 58 | 325 | 0.0 | 0.0 | 0.00 | 0.00 | 0.00 | 57 | 1015.4 |
| 20260507055604 | 58 | 325 | 0.0 | 0.0 | 0.00 | 0.00 | 0.00 | 57 | 1015.5 |
| 20260507055104 | 58 | 325 | 0.0 | 0.0 | 0.00 | 0.00 | 0.00 | 56 | 1015.4 |
| 20260507054604 | 59 | 325 | 0.0 | 0.0 | 0.00 | 0.00 | 0.00 | 56 | 1015.5 |
| 20260507053603 | 59 | 325 | 0.0 | 0.0 | 0.00 | 0.00 | 0.00 | 56 | 1015.6 |
| 20260507053104 | 59 | 325 | 0.0 | 0.0 | 0.00 | 0.00 | 0.00 | 55 | 1015.6 |
| 20260507052604 | 60 | 325 | 0.0 | 0.0 | 0.00 | 0.00 | 0.00 | 54 | 1015.6 |
| 20260507052104 | 60 | 325 | 0.0 | 0.0 | 0.00 | 0.00 | 0.00 | 53 | 1015.7 |
| 20260507051603 | 60 | 325 | 0.0 | 0.0 | 0.00 | 0.00 | 0.00 | 53 | 1015.7 |
| 20260507051103 | 61 | 325 | 0.0 | 0.0 | 0.00 | 0.00 | 0.00 | 52 | 1015.7 |
| 20260507050104 | 61 | 325 | 0.0 | 0.0 | 0.00 | 0.00 | 0.00 | 51 | 1015.6 |
| 20260507045604 | 61 | 325 | 0.0 | 0.0 | 0.00 | 0.00 | 0.00 | 50 | 1015.5 |
| 20260507045103 | 61 | 325 | 0.0 | 0.0 | 0.00 | 0.00 | 0.00 | 51 | 1015.5 |
| 20260507044604 | 62 | 325 | 0.0 | 0.0 | 0.00 | 0.00 | 0.00 | 51 | 1015.5 |
| 20260507044104 | 62 | 325 | 0.0 | 0.0 | 0.00 | 0.00 | 0.00 | 50 | 1015.5 |
| 20260507043604 | 62 | 325 | 0.0 | 0.0 | 0.00 | 0.00 | 0.00 | 50 | 1015.4 |
| 20260507043104 | 62 | 325 | 0.0 | 0.0 | 0.00 | 0.00 | 0.00 | 51 | 1015.4 |
| 20260507042103 | 63 | 325 | 0.0 | 0.0 | 0.00 | 0.00 | 0.00 | 50 | 1015.3 |
| 20260507041603 | 63 | 325 | 0.0 | 0.0 | 0.00 | 0.00 | 0.00 | 49 | 1015.3 |
| 20260507041104 | 63 | 325 | 0.0 | 0.0 | 0.00 | 0.00 | 0.00 | 49 | 1015.2 |
| 20260507040604 | 63 | 325 | 0.0 | 0.0 | 0.00 | 0.00 | 0.00 | 49 | 1015.1 |
| 20260507040104 | 63 | 323 | 0.0 | 0.0 | 0.00 | 0.00 | 0.00 | 49 | 1015.1 |
| 20260507035604 | 63 | 323 | 0.0 | 1.7 | 0.00 | 0.00 | 0.00 | 49 | 1015.0 |
| 20260507034604 | 64 | 324 | 0.0 | 0.0 | 0.00 | 0.00 | 0.00 | 49 | 1015.0 |
| 20260507034103 | 64 | 325 | 0.9 | 5.2 | 0.00 | 0.00 | 0.00 | 48 | 1014.9 |
| 20260507032604 | 65 | 328 | 0.9 | 2.6 | 0.00 | 0.00 | 0.00 | 46 | 1014.7 |
| 20260507031604 | 65 | 329 | 0.0 | 1.7 | 0.00 | 0.00 | 0.00 | 45 | 1014.7 |
| 20260507030604 | 66 | 323 | 0.0 | 2.6 | 0.00 | 0.00 | 0.00 | 44 | 1014.5 |
| 20260507025604 | 66 | 317 | 0.0 | 0.0 | 0.00 | 0.00 | 0.00 | 43 | 1014.4 |
| 20260507025104 | 67 | 314 | 0.0 | 0.0 | 0.00 | 0.00 | 0.00 | 42 | 1014.3 |
| 20260507024604 | 67 | 314 | 0.9 | 2.6 | 0.00 | 0.00 | 0.00 | 42 | 1014.3 |
| 20260507024103 | 67 | 314 | 0.0 | 0.9 | 0.00 | 0.00 | 0.00 | 43 | 1014.3 |
| 20260507023604 | 67 | 327 | 0.0 | 2.6 | 0.00 | 0.00 | 0.00 | 42 | 1014.3 |
| 20260507022604 | 68 | 323 | 0.9 | 2.6 | 0.00 | 0.00 | 0.00 | 40 | 1014.2 |
| 20260507022103 | 68 | 277 | 0.0 | 1.7 | 0.00 | 0.00 | 0.00 | 40 | 1014.1 |
| 20260507021604 | 69 | 238 | 0.0 | 0.9 | 0.00 | 0.00 | 0.00 | 39 | 1014.0 |
| 20260507021104 | 69 | 229 | 0.0 | 1.7 | 0.00 | 0.00 | 0.00 | 39 | 1013.9 |
| 20260507020604 | 69 | 300 | 0.0 | 1.7 | 0.00 | 0.00 | 0.00 | 38 | 1014.0 |
| 20260507020104 | 70 | 294 | 0.0 | 1.7 | 0.00 | 0.00 | 0.00 | 37 | 1013.9 |
| 20260507015604 | 71 | 304 | 0.0 | 2.6 | 0.00 | 0.00 | 0.00 | 37 | 1014.0 |
| 20260507015104 | 71 | 224 | 0.0 | 2.6 | 0.00 | 0.00 | 0.00 | 38 | 1013.9 |
| 20260507014604 | 71 | 294 | 0.0 | 5.2 | 0.00 | 0.00 | 0.00 | 36 | 1014.0 |
| 20260507014103 | 71 | 323 | 0.9 | 2.6 | 0.00 | 0.00 | 0.00 | 36 | 1013.8 |
| 20260507013604 | 72 | 317 | 0.9 | 2.6 | 0.00 | 0.00 | 0.00 | 36 | 1013.8 |
| 20260507013104 | 72 | 324 | 2.6 | 10.4 | 0.00 | 0.00 | 0.00 | 36 | 1013.9 |